Regional Weather Roundup
Issued by NWS

Home | Current Version | Previous Version | Graphics & Text | Print | Product List | Glossary On
Versions: 1 2 3 4 5 6 7 8 9 10 11 12 13 14 15 16 17 18 19 20 21 22 23 24 25 26 27 28 29 30 31 32 33 34 35 36 37 38 39 40 41 42 43 44 45 46 47 48 49 50
000
ASUS43 KFSD 250402
RWRSD

WEATHER ROUNDUP FOR SOUTH DAKOTA
NATIONAL WEATHER SERVICE SIOUX FALLS SD
1100 PM CDT SAT SEP 24 2016

NOTE: "FAIR" INDICATES FEW OR NO CLOUDS BELOW 12,000 FEET WITH NO
SIGNIFICANT WEATHER AND/OR OBSTRUCTIONS TO VISIBILITY.


SDZ001>005-009-010-012>017-250500-
NORTHWEST AND NORTH CENTRAL SOUTH DAKOTA

CITY           SKY/WX    TMP DP  RH WIND       PRES   REMARKS
BUFFALO          N/A     50  48  93 W36G44    29.87R
FAITH            N/A     53  50  89 W32G43    29.84R
MOBRIDGE       CLEAR     55  44  66 S10       29.82S
$$

SDZ012>016-024>037-041>051-057-063-072>074-250500-
SOUTHWEST AND SOUTH CENTRAL SOUTH DAKOTA

CITY           SKY/WX    TMP DP  RH WIND       PRES   REMARKS
RAPID CTY ARPT CLOUDY    53  41  63 NW25G36   30.03R
PIERRE         CLEAR     54  40  59 W10       29.92S
CUSTER         CLOUDY    43  36  76 W21G37    30.09R
ELLSWORTH AFB  CLOUDY    53  42  66 NW26G39   30.01R
PHILIP         CLOUDY    55  44  66 W26G37    29.98R
PINE RIDGE     CLOUDY    53  42  66 W20G30    30.11R
WINNER         FAIR      59  42  53 W14       29.99R
$$

SDZ004>011-016>023-039-040-250500-
NORTHEAST SOUTH DAKOTA

CITY           SKY/WX    TMP DP  RH WIND       PRES   REMARKS
ABERDEEN       CLEAR     62  46  55 SW12      29.84R
WATERTOWN      PTCLDY    66  64  93 S9        29.87S
SISSETON         N/A     67  66  97 S12       29.83S
$$

SDZ017-020-022-023-036>040-048>070-250500-
SOUTHEAST SOUTH DAKOTA

CITY           SKY/WX    TMP DP  RH WIND       PRES   REMARKS
SIOUX FALLS    CLOUDY    71  68  90 SW8       29.91S
HURON          CLEAR     61  48  62 W8        29.88R
CHAMBERLAIN    CLEAR     61  44  54 W14G20    29.96S
MITCHELL       PTCLDY    65  52  62 W12       29.91R
YANKTON        PTCLDY    66  66 100 S6        29.91S
$$

ABBREVIATIONS USED IN REMARKS
   TC - TEMPERATURE IN CELSIUS
  WCI - WIND CHILL INDEX
   HX - HEAT INDEX
  VSB - VISIBILITY





USA.gov is the U.S. government's official web portal to all federal, state and local government web resources and services.